GW6605 Weather Reports


time (UTC)temp
C
wind
direction
speed
KPH
gust
KPH
rain 1hr
cm
rain 24hr
cm
rain mn
cm
humidity
%
barometer
mb
20260510150033 15 134 1.6 4.8 0.00 1.12 0.00 77 1011.4
20260510145508 15 355 1.6 4.8 0.00 1.12 0.00 76 1011.2
20260510145009 15 2 1.6 6.4 0.00 1.12 0.00 79 1011.3
20260510144524 15 248 1.6 6.4 0.00 1.14 0.00 79 1011.2
20260510144007 15 104 1.6 6.4 0.00 1.17 0.00 80 1011.3
20260510143507 14 122 1.6 4.8 0.00 1.17 0.00 80 1011.4
20260510143025 14 316 1.6 4.8 0.00 1.19 0.00 81 1011.5
20260510142511 13 20 0.0 4.8 0.00 1.19 0.00 82 1011.5
20260510142006 13 53 1.6 4.8 0.00 1.22 0.00 82 1011.4
20260510141524 13 298 1.6 6.4 0.00 1.22 0.00 82 1011.4
20260510141004 13 1 3.2 6.4 0.00 1.22 0.00 82 1011.4
20260510140503 13 16 3.2 6.4 0.00 1.22 0.00 82 1011.3
20260510140019 13 359 3.2 9.7 0.00 1.22 0.00 82 1011.4
20260510135508 13 53 1.6 9.7 0.00 1.22 0.00 83 1011.3
20260510135008 13 18 3.2 8.0 0.00 1.22 0.00 82 1011.4
20260510134525 13 58 3.2 8.0 0.00 1.22 0.00 83 1011.3
20260510134009 13 23 1.6 6.4 0.00 1.22 0.00 87 1011.3
20260510133507 13 49 1.6 6.4 0.00 1.22 0.00 87 1011.4
20260510133024 12 28 1.6 4.8 0.00 1.22 0.00 87 1011.5
20260510132510 12 22 0.0 4.8 0.00 1.22 0.00 88 1011.5
20260510132012 12 47 1.6 3.2 0.00 1.22 0.00 88 1011.6
20260510131526 12 47 0.0 3.2 0.00 1.22 0.00 89 1011.6
20260510131007 12 63 1.6 4.8 0.00 1.22 0.00 89 1011.7
20260510130507 12 79 1.6 3.2 0.00 1.22 0.00 89 1011.7
20260510130018 11 215 0.0 3.2 0.00 1.22 0.00 89 1011.6
20260510125505 11 261 1.6 3.2 0.00 1.22 0.00 90 1011.5
20260510125009 11 250 0.0 3.2 0.00 1.22 0.00 91 1011.5
20260510124522 11 67 0.0 3.2 0.00 1.22 0.00 92 1011.3
20260510124007 11 350 0.0 3.2 0.00 1.22 0.00 92 1011.4
20260510123512 11 146 0.0 3.2 0.00 1.22 0.00 92 1011.5
20260510123026 11 62 0.0 3.2 0.00 1.22 0.00 93 1011.6
20260510122509 11 119 0.0 3.2 0.00 1.22 0.00 93 1011.7
20260510122007 10 257 0.0 3.2 0.00 1.22 0.00 93 1011.6
20260510121525 10 40 0.0 3.2 0.00 1.22 0.00 94 1011.6
20260510121008 10 18 0.0 3.2 0.00 1.22 0.00 94 1011.7
20260510120506 10 83 0.0 3.2 0.00 1.22 0.00 95 1011.6
20260510120019 10 205 0.0 3.2 0.00 1.22 0.00 95 1011.6
20260510115504 10 196 0.0 3.2 0.00 1.22 0.00 95 1011.6
20260510115003 10 160 0.0 3.2 0.00 1.22 0.00 95 1011.6
20260510114518 10 82 0.0 1.6 0.00 1.22 0.00 95 1011.6
20260510114003 10 82 0.0 3.2 0.00 1.22 0.00 95 1011.6
20260510113503 10 254 0.0 3.2 0.00 1.22 0.00 95 1011.6
20260510113004 10 263 0.0 3.2 0.00 1.22 0.00 95 1011.4
20260510112503 9 229 0.0 3.2 0.00 1.22 0.00 95 1011.4
20260510111520 9 71 0.0 3.2 0.00 1.22 0.00 95 1011.2
20260510110019 8 244 0.0 3.2 0.00 1.22 0.00 95 1011.4
20260510104530 8 244 0.0 3.2 0.00 1.22 0.00 95 1011.2
20260510104005 8 231 0.0 3.2 0.00 1.22 0.00 95 1011.0
20260510103504 8 226 0.0 3.2 0.00 1.22 0.00 95 1010.9
20260510103019 8 252 1.6 3.2 0.00 1.22 0.00 95 1010.9
20260510102504 8 283 0.0 3.2 0.00 1.22 0.00 95 1010.7
20260510102003 8 287 0.0 3.2 0.00 1.22 0.00 95 1010.7
20260510101507 8 285 0.0 3.2 0.00 1.22 0.00 95 1010.6
20260510101003 8 285 0.0 3.2 0.00 1.22 0.00 95 1010.4
20260510100504 8 285 0.0 3.2 0.00 1.22 0.00 95 1010.4
20260510100013 8 285 0.0 3.2 0.00 1.22 0.00 95 1010.1
20260510095505 8 281 0.0 3.2 0.00 1.22 0.00 95 1009.8
20260510095004 8 244 1.6 1.6 0.00 1.22 0.00 95 1009.6
20260510094531 8 283 1.6 3.2 0.00 1.22 0.00 95 1009.9
20260510094004 8 236 1.6 3.2 0.00 1.22 0.00 95 1009.9
20260510093507 8 162 0.0 3.2 0.00 1.22 0.00 95 1009.8
20260510093012 8 149 0.0 3.2 0.00 1.22 0.00 95 1009.9
20260510092504 8 167 0.0 3.2 0.00 1.22 0.00 95 1009.9
20260510092005 8 236 0.0 3.2 0.00 1.22 0.00 95 1010.0
20260510091003 8 216 0.0 3.2 0.00 1.22 0.00 95 1009.7
20260510090504 8 216 0.0 3.2 0.00 1.22 0.00 95 1009.7
20260510090010 8 207 0.0 3.2 0.00 1.22 0.00 95 1009.7
20260510085503 8 251 1.6 3.2 0.00 1.22 0.00 95 1009.8
20260510085008 8 260 0.0 3.2 0.00 1.22 0.00 95 1009.6
20260510084516 8 260 0.0 3.2 0.00 1.22 0.00 94 1009.8
20260510084006 8 260 0.0 0.0 0.00 1.22 0.00 95 1010.0
20260510083506 8 260 0.0 1.6 0.00 1.22 0.00 95 1010.1
20260510083016 8 260 0.0 3.2 0.00 1.22 0.00 95 1010.3
20260510082507 8 260 0.0 3.2 0.00 1.22 0.00 95 1010.4
20260510082007 8 260 0.0 3.2 0.00 1.22 0.00 95 1010.5
20260510081531 8 260 0.0 1.6 0.00 1.22 0.00 95 1010.5
20260510081005 8 260 0.0 3.2 0.00 1.22 0.00 94 1010.2
20260510080506 8 260 0.0 3.2 0.00 1.22 0.00 94 1010.4
20260510080008 8 260 0.0 3.2 0.00 1.22 0.00 95 1010.3
20260510075503 8 260 0.0 3.2 0.00 1.22 0.00 95 1010.4
20260510075006 8 262 0.0 1.6 0.00 1.22 0.00 94 1010.6
20260510074513 8 262 0.0 0.0 0.00 1.22 0.00 94 1010.6
20260510074007 8 262 0.0 3.2 0.00 1.22 0.00 94 1010.3
20260510073507 8 262 0.0 3.2 0.00 1.22 0.00 94 1010.4
20260510073017 8 262 0.0 3.2 0.00 1.22 0.00 94 1010.5
20260510072504 8 262 0.0 3.2 0.00 1.22 0.00 94 1010.4
20260510072007 8 262 0.0 3.2 0.00 1.22 0.00 94 1010.3
20260510071517 8 262 0.0 3.2 0.00 1.22 0.00 94 1010.2
20260510071007 8 262 0.0 1.6 0.00 1.22 0.00 94 1010.2
20260510070508 8 262 1.6 1.6 0.00 1.22 0.00 94 1010.4
20260510070021 8 28 0.0 1.6 0.00 1.22 0.00 94 1010.1
20260510065506 8 28 0.0 0.0 0.00 1.22 0.00 94 1010.2
20260510065009 8 28 0.0 0.0 0.00 1.22 0.00 94 1010.1
20260510064005 8 28 0.0 3.2 0.00 1.22 0.00 94 1010.2
20260510063503 8 19 0.0 1.6 0.00 1.22 0.00 94 1010.5
20260510063017 8 359 0.0 3.2 0.00 1.22 0.00 94 1010.6
20260510062508 9 359 0.0 3.2 0.00 1.22 0.00 94 1010.6
20260510062011 9 359 0.0 3.2 0.00 1.22 0.00 94 1010.2
20260510061525 9 359 0.0 1.6 0.00 1.22 0.00 94 1010.2
20260510061007 9 359 0.0 3.2 0.00 1.22 0.00 94 1010.3
20260510060513 9 359 0.0 3.2 0.00 1.22 0.00 94 1010.3
20260510060018 9 359 0.0 3.2 0.00 1.22 0.00 94 1010.4
20260510055506 9 359 0.0 3.2 0.00 1.22 0.00 94 1010.3
20260510055010 9 359 0.0 3.2 0.00 1.22 0.00 94 1010.3
20260510054520 9 1 0.0 3.2 0.00 1.22 0.00 94 1010.2
20260510054008 9 338 1.6 8.0 0.00 1.22 0.00 94 1010.0
20260510053502 9 270 1.6 8.0 0.00 1.22 0.00 94 1009.9
20260510053012 9 259 1.6 4.8 0.00 1.22 0.00 94 1010.0
20260510052506 9 284 1.6 4.8 0.00 1.22 0.00 94 1010.0
20260510051001 9 326 0.0 3.2 0.00 1.22 0.00 94 1010.4
20260510045506 9 242 0.0 3.2 0.00 1.22 0.00 94 1010.8
20260510045003 9 236 0.0 3.2 0.00 1.22 0.00 94 1010.9
20260510044509 9 311 0.0 3.2 0.00 1.22 0.00 94 1010.8
20260510044004 9 237 0.0 3.2 0.00 1.22 0.00 94 1010.9
20260510043504 9 237 0.0 1.6 0.00 1.22 0.00 94 1011.0
20260510043019 9 237 0.0 3.2 0.00 1.22 0.00 94 1011.0
20260510042506 9 236 0.0 3.2 0.00 1.22 0.00 94 1011.0
20260510042003 9 247 0.0 3.2 0.00 1.22 0.00 94 1010.9
20260510041514 9 255 0.0 3.2 0.00 1.22 0.00 94 1010.8
20260510041006 9 255 0.0 3.2 0.00 1.22 0.00 94 1010.8
20260510040501 9 254 0.0 3.2 0.00 1.22 0.00 94 1010.8
20260510034007 9 272 0.0 3.2 0.00 1.22 1.22 94 1010.9
20260510033501 8 272 0.0 1.6 0.00 1.22 1.22 94 1011.0
20260510033009 8 272 0.0 3.2 0.00 1.22 1.22 94 1010.9
20260510032506 8 265 0.0 3.2 0.00 1.22 1.22 94 1010.9
20260510032006 8 264 0.0 3.2 0.00 1.22 1.22 94 1010.9
20260510031007 8 217 1.6 4.8 0.00 1.22 1.22 94 1011.0
20260510030509 8 250 1.6 3.2 0.00 1.22 1.22 94 1010.9
20260510030018 8 271 1.6 3.2 0.00 1.22 1.22 94 1011.0
20260510025509 8 105 0.0 3.2 0.00 1.22 1.22 94 1010.9
20260510024003 8 257 1.6 4.8 0.00 1.22 1.22 94 1011.0
20260510023005 8 216 0.0 3.2 0.00 1.22 1.22 94 1010.9
20260510022503 8 211 0.0 3.2 0.00 1.22 1.22 94 1010.9
20260510022002 8 211 0.0 3.2 0.00 1.22 1.22 94 1011.3
20260510021515 8 211 0.0 3.2 0.00 1.22 1.22 94 1011.3
20260510021004 8 224 0.0 3.2 0.00 1.22 1.22 94 1011.4
20260510020503 8 252 0.0 3.2 0.00 1.22 1.22 94 1011.4
20260510020014 8 252 0.0 3.2 0.00 1.22 1.22 94 1011.5
20260510015508 8 293 0.0 3.2 0.00 1.22 1.22 93 1011.4
20260510015008 8 360 0.0 3.2 0.00 1.22 1.22 94 1011.3
20260510014520 8 1 0.0 3.2 0.00 1.22 1.22 93 1011.2
20260510012503 8 1 0.0 0.0 0.00 1.22 1.22 93 1011.4
20260510012002 8 1 0.0 0.0 0.00 1.22 1.22 93 1011.4
20260510011006 8 1 0.0 3.2 0.00 1.22 1.22 93 1011.2
20260510010015 8 1 0.0 1.6 0.00 1.22 1.22 93 1011.2
20260510005509 8 1 0.0 1.6 0.00 1.22 1.22 93 1011.2
20260510005008 8 1 0.0 3.2 0.00 1.22 1.22 93 1011.1
20260510004521 8 1 0.0 3.2 0.00 1.22 1.22 93 1011.1
20260510004012 8 1 0.0 0.0 0.00 1.22 1.22 93 1011.0
20260510003508 8 1 0.0 0.0 0.00 1.22 1.22 93 1011.0
20260510002500 8 1 0.0 3.2 0.00 1.22 1.22 93 1010.9
20260510001507 8 1 0.0 3.2 0.00 1.22 1.22 92 1010.7
20260510001004 8 1 0.0 3.2 0.00 1.22 1.22 92 1010.7
20260510000505 8 337 0.0 3.2 0.00 1.22 1.22 92 1010.6
20260509235506 8 37 0.0 1.6 0.00 1.22 1.22 92 1010.5
20260509235005 8 36 0.0 3.2 0.00 1.22 1.22 92 1010.4
20260509234519 8 36 0.0 3.2 0.00 1.22 1.22 92 1010.4
20260509234011 8 36 0.0 3.2 0.00 1.22 1.22 92 1010.3
20260509233507 8 51 0.0 0.0 0.00 1.22 1.22 92 1010.3
20260509233025 8 51 0.0 3.2 0.00 1.22 1.22 92 1010.3
20260509232508 8 51 0.0 3.2 0.00 1.22 1.22 92 1010.3
20260509232009 8 51 0.0 3.2 0.00 1.22 1.22 92 1010.4
20260509231505 8 51 0.0 3.2 0.00 1.22 1.22 92 1010.3
20260509231004 8 51 0.0 3.2 0.00 1.22 1.22 92 1010.4
20260509230504 8 51 0.0 3.2 0.00 1.22 1.22 92 1010.5
20260509225505 8 52 0.0 3.2 0.00 1.22 1.22 92 1010.5
20260509224512 8 52 0.0 3.2 0.00 1.22 1.22 92 1010.6
20260509224008 8 52 0.0 3.2 0.00 1.22 1.22 92 1010.6
20260509223507 8 52 0.0 1.6 0.00 1.22 1.22 92 1010.6
20260509223021 8 52 0.0 3.2 0.00 1.22 1.22 92 1010.6
20260509222508 8 52 0.0 3.2 0.00 1.22 1.22 91 1010.7
20260509222011 8 52 0.0 3.2 0.00 1.22 1.22 91 1010.7
20260509221533 8 52 0.0 3.2 0.00 1.22 1.22 92 1010.7
20260509221009 8 53 0.0 3.2 0.00 1.22 1.22 91 1010.6
20260509220510 8 53 0.0 3.2 0.00 1.22 1.22 91 1010.7
20260509215504 8 53 0.0 3.2 0.00 1.22 1.22 91 1010.7
20260509215004 8 53 0.0 3.2 0.00 1.22 1.22 91 1010.8
20260509214509 8 64 0.0 3.2 0.00 1.22 1.22 91 1010.8
20260509214008 8 201 0.0 3.2 0.00 1.22 1.22 91 1010.8
20260509213504 8 75 0.0 3.2 0.00 1.22 1.22 91 1010.9
20260509213015 8 287 0.0 3.2 0.00 1.22 1.22 91 1010.9
20260509212508 8 41 0.0 3.2 0.00 1.22 1.22 91 1011.1
20260509211526 8 30 0.0 3.2 0.00 1.22 1.22 91 1011.0
20260509211010 8 30 0.0 3.2 0.00 1.22 1.22 91 1011.1
20260509210507 8 31 0.0 3.2 0.00 1.22 1.22 91 1011.1
20260509210038 8 31 0.0 3.2 0.03 1.22 1.22 91 1011.1
20260509205511 8 123 0.0 3.2 0.03 1.22 1.22 91 1011.2
20260509204509 8 82 0.0 3.2 0.05 1.22 1.22 91 1011.2
20260509204009 8 271 0.0 3.2 0.08 1.22 1.22 91 1011.2
20260509203506 8 133 0.0 3.2 0.08 1.22 1.22 91 1011.3
20260509202505 8 79 0.0 3.2 0.13 1.22 1.22 91 1011.3
20260509201524 8 80 0.0 3.2 0.15 1.22 1.22 90 1011.3
20260509200506 8 84 0.0 3.2 0.18 1.22 1.22 91 1011.3
20260509200031 8 360 0.0 4.8 0.18 1.19 1.19 91 1011.3
20260509195508 8 235 0.0 4.8 0.18 1.19 1.19 90 1011.3
20260509195007 8 129 0.0 3.2 0.15 1.17 1.17 90 1011.3
20260509194530 8 109 0.0 3.2 0.18 1.17 1.17 90 1011.4
20260509194016 8 273 0.0 3.2 0.15 1.14 1.14 90 1011.5
20260509193504 8 243 0.0 3.2 0.18 1.14 1.14 90 1011.5
20260509193010 8 305 1.6 4.8 0.15 1.12 1.12 90 1011.6
20260509192508 8 179 1.6 4.8 0.15 1.09 1.09 90 1011.6
20260509192008 8 316 0.0 3.2 0.15 1.07 1.07 91 1011.6
20260509191516 8 250 1.6 3.2 0.18 1.07 1.07 90 1011.7
20260509191007 8 270 0.0 4.8 0.18 1.04 1.04 90 1011.6
20260509190506 8 185 0.0 4.8 0.20 1.04 1.04 90 1011.7
20260509185508 8 262 0.0 3.2 0.23 1.02 1.02 91 1011.8
20260509184535 8 30 1.6 3.2 0.28 0.99 0.99 91 1011.9
20260509184007 8 327 0.0 3.2 0.33 0.99 0.99 91 1012.0
20260509183508 8 249 0.0 3.2 0.33 0.97 0.97 91 1012.0
20260509183028 8 252 1.6 3.2 0.36 0.97 0.97 90 1012.0
20260509182512 8 279 1.6 3.2 0.36 0.94 0.94 91 1012.0
20260509182006 8 170 0.0 3.2 0.36 0.91 0.91 91 1012.1
20260509181514 8 191 0.0 3.2 0.36 0.89 0.89 91 1012.0
20260509181008 8 210 1.6 3.2 0.36 0.86 0.86 91 1012.0
20260509180503 8 143 1.6 4.8 0.36 0.84 0.84 92 1012.0
20260509180003 8 164 1.6 4.8 0.36 0.81 0.81 91 1012.1
20260509175503 8 241 0.0 3.2 0.33 0.79 0.79 91 1012.3
20260509175004 7 256 0.0 3.2 0.33 0.76 0.76 91 1012.4
20260509174508 7 181 0.0 3.2 0.30 0.71 0.71 91 1012.5
20260509174005 7 124 0.0 3.2 0.28 0.66 0.66 90 1012.4
20260509173030 7 122 0.0 3.2 0.23 0.61 0.61 90 1012.5
20260509172503 7 137 0.0 3.2 0.23 0.58 0.58 90 1012.5
20260509172006 7 108 0.0 3.2 0.23 0.56 0.56 90 1012.6
20260509171004 7 139 0.0 3.2 0.20 0.51 0.51 90 1012.5
20260509170507 7 98 0.0 3.2 0.18 0.48 0.48 90 1012.7
20260509170018 7 226 0.0 3.2 0.18 0.46 0.46 90 1012.8
20260509165500 7 7 0.0 3.2 0.18 0.46 0.46 90 1012.7
20260509165001 7 103 0.0 3.2 0.15 0.43 0.43 90 1012.8
20260509164503 7 201 0.0 3.2 0.15 0.41 0.41 90 1012.9
20260509164003 7 168 0.0 3.2 0.13 0.38 0.38 90 1012.9
20260509163504 7 219 0.0 4.8 0.15 0.38 0.38 90 1013.0
20260509163013 7 225 0.0 4.8 0.18 0.38 0.38 90 1013.1
20260509162504 7 171 0.0 3.2 0.15 0.36 0.36 90 1013.2
20260509162004 7 274 0.0 3.2 0.15 0.33 0.33 89 1013.2
20260509161512 7 269 0.0 3.2 0.18 0.33 0.33 89 1013.3
20260509161005 7 251 0.0 3.2 0.18 0.30 0.30 89 1013.4
20260509160504 7 285 0.0 3.2 0.18 0.30 0.30 89 1013.4
20260509155504 7 113 1.6 4.8 0.18 0.28 0.28 89 1013.5
20260509155008 7 193 0.0 4.8 0.18 0.28 0.28 89 1013.6
20260509154002 7 193 0.0 3.2 0.20 0.25 0.25 89 1013.8
20260509153503 7 156 0.0 3.2 0.18 0.23 0.23 89 1013.8
20260509153006 7 316 0.0 3.2 0.18 0.20 0.20 88 1013.9
20260509152503 7 359 0.0 3.2 0.18 0.20 0.20 89 1013.9
20260509152004 7 348 0.0 3.2 0.18 0.18 0.18 88 1013.9
20260509151508 7 292 1.6 3.2 0.15 0.15 0.15 88 1013.9
20260509151006 7 60 0.0 3.2 0.13 0.13 0.13 88 1013.8
20260509150504 7 129 0.0 3.2 0.13 0.13 0.13 88 1013.9